| time (UTC) | temp C | wind direction | speed KPH | gust KPH | rain 1hr cm | rain 24hr cm | rain mn cm | humidity % | barometer mb |
| 20260504081610 | 16 | 272 | 3.2 | 11.3 | 0.00 | 0.00 | 0.00 | 44 | 1019.4 |
| 20260504044523 | 10 | 269 | 0.0 | 0.0 | 0.00 | 0.15 | 0.00 | 79 | 1018.6 |
| 20260504043034 | 8 | 269 | 0.0 | 1.6 | 0.00 | 0.15 | 0.00 | 82 | 1018.5 |
| 20260504041514 | 8 | 269 | 0.0 | 0.0 | 0.00 | 0.15 | 0.00 | 83 | 1018.5 |
| 20260504040012 | 7 | 269 | 0.0 | 1.6 | 0.00 | 0.15 | 0.00 | 82 | 1018.4 |
| 20260504034507 | 7 | 269 | 0.0 | 0.0 | 0.00 | 0.15 | 0.00 | 81 | 1018.2 |
| 20260504033006 | 7 | 269 | 0.0 | 0.0 | 0.00 | 0.15 | 0.00 | 80 | 1018.2 |
| 20260504031506 | 7 | 269 | 0.0 | 0.0 | 0.00 | 0.15 | 0.00 | 80 | 1018.3 |
| 20260504030013 | 7 | 269 | 0.0 | 1.6 | 0.00 | 0.15 | 0.00 | 79 | 1018.2 |
| 20260504024506 | 7 | 269 | 0.0 | 1.6 | 0.00 | 0.18 | 0.00 | 79 | 1018.2 |
| 20260504023002 | 7 | 269 | 0.0 | 1.6 | 0.00 | 0.18 | 0.00 | 78 | 1018.2 |
| 20260504021501 | 8 | 269 | 0.0 | 1.6 | 0.00 | 0.18 | 0.00 | 77 | 1018.3 |
| 20260504020139 | 8 | 269 | 0.0 | 0.0 | 0.00 | 0.18 | 0.00 | 76 | 1018.3 |
| 20260504014607 | 8 | 269 | 0.0 | 1.6 | 0.00 | 0.18 | 0.00 | 76 | 1018.3 |
| 20260504013117 | 8 | 269 | 0.0 | 0.0 | 0.00 | 0.18 | 0.00 | 75 | 1018.3 |
| 20260504011555 | 8 | 269 | 0.0 | 1.6 | 0.00 | 0.18 | 0.00 | 74 | 1018.4 |
| 20260504010054 | 8 | 269 | 0.0 | 1.6 | 0.00 | 0.18 | 0.00 | 73 | 1018.2 |
| 20260504004621 | 8 | 269 | 0.0 | 1.6 | 0.00 | 0.18 | 0.00 | 72 | 1018.2 |
| 20260504003058 | 8 | 269 | 0.0 | 0.0 | 0.00 | 0.18 | 0.00 | 71 | 1018.2 |
| 20260504001618 | 9 | 269 | 0.0 | 1.6 | 0.00 | 0.18 | 0.00 | 69 | 1018.1 |
| 20260504000056 | 9 | 270 | 0.0 | 1.6 | 0.00 | 0.18 | 0.00 | 69 | 1018.1 |
| 20260503234547 | 9 | 270 | 0.0 | 1.6 | 0.00 | 0.18 | 0.00 | 69 | 1018.2 |
| 20260503233045 | 10 | 270 | 0.0 | 1.6 | 0.00 | 0.18 | 0.00 | 68 | 1018.2 |
| 20260503231543 | 10 | 270 | 0.0 | 1.6 | 0.00 | 0.18 | 0.00 | 67 | 1018.3 |
| 20260503230105 | 10 | 270 | 0.0 | 1.6 | 0.00 | 0.18 | 0.00 | 64 | 1018.2 |
| 20260503224539 | 10 | 270 | 0.0 | 4.8 | 0.00 | 0.23 | 0.00 | 63 | 1018.2 |
| 20260503223038 | 10 | 287 | 3.2 | 12.9 | 0.00 | 0.23 | 0.00 | 63 | 1018.2 |
| 20260503221537 | 10 | 271 | 0.0 | 11.3 | 0.00 | 0.23 | 0.00 | 63 | 1018.3 |
| 20260503220043 | 10 | 277 | 1.6 | 9.7 | 0.00 | 0.23 | 0.00 | 64 | 1018.4 |
| 20260503214534 | 10 | 260 | 0.0 | 3.2 | 0.00 | 0.23 | 0.00 | 64 | 1018.4 |
| 20260503213033 | 10 | 283 | 1.6 | 12.9 | 0.00 | 0.23 | 0.00 | 63 | 1018.4 |
| 20260503211532 | 10 | 254 | 1.6 | 6.4 | 0.00 | 0.23 | 0.00 | 63 | 1018.3 |
| 20260503210030 | 11 | 257 | 1.6 | 4.8 | 0.00 | 0.23 | 0.00 | 62 | 1018.4 |
| 20260503204529 | 11 | 256 | 0.0 | 4.8 | 0.00 | 0.23 | 0.23 | 61 | 1018.4 |
| 20260503203044 | 11 | 283 | 3.2 | 14.5 | 0.00 | 0.23 | 0.23 | 61 | 1018.5 |
| 20260503201532 | 11 | 252 | 1.6 | 14.5 | 0.00 | 0.23 | 0.23 | 60 | 1018.4 |
| 20260503200026 | 11 | 322 | 3.2 | 14.5 | 0.00 | 0.23 | 0.23 | 60 | 1018.5 |
| 20260503194536 | 11 | 256 | 1.6 | 11.3 | 0.00 | 0.23 | 0.23 | 60 | 1018.5 |
| 20260503193025 | 11 | 257 | 3.2 | 12.9 | 0.00 | 0.23 | 0.23 | 59 | 1018.4 |
| 20260503191524 | 11 | 274 | 0.0 | 11.3 | 0.00 | 0.23 | 0.23 | 60 | 1018.4 |
| 20260503190035 | 11 | 252 | 1.6 | 16.1 | 0.00 | 0.23 | 0.23 | 60 | 1018.3 |
| 20260503184524 | 11 | 247 | 1.6 | 6.4 | 0.00 | 0.23 | 0.23 | 59 | 1018.1 |
| 20260503183018 | 11 | 279 | 3.2 | 12.9 | 0.00 | 0.23 | 0.23 | 59 | 1017.9 |
| 20260503181517 | 12 | 269 | 3.2 | 16.1 | 0.00 | 0.23 | 0.23 | 57 | 1017.7 |
| 20260503180016 | 12 | 316 | 0.0 | 19.3 | 0.00 | 0.23 | 0.23 | 57 | 1017.4 |
| 20260503174513 | 12 | 264 | 1.6 | 14.5 | 0.00 | 0.23 | 0.23 | 57 | 1017.3 |
| 20260503173013 | 12 | 287 | 4.8 | 14.5 | 0.00 | 0.23 | 0.23 | 57 | 1017.1 |
| 20260503171511 | 12 | 315 | 6.4 | 16.1 | 0.00 | 0.23 | 0.23 | 56 | 1017.1 |